QFA56 YBBN-KLAX

Flight info

Callsign QFA56
Flight time N/A
Altitude 37000
Route GUMKI B578 MEPEM DCT 2449S16103E/N0508F310 2401S16300E 2228S16633E 2044S16948E 1735S17428E 1342S17844E 1036S17811W 0716S17505W/N0510F330 0506S17259W 0500S17253W 0254S17056W 0136N16708W 0439N16445W 0648N16309W/N0504F350 1015N16034W 1250N15822W 1608N15450W 1930N15007W 2202N14537W/N0491F370 2431N13945W 2553N13535W 2720N13002W 2750N12750W DCT WEDES B581 FICKY GOATZ2
Aircraft B744/H-SDE3FGHIM1M2RWXY/LB1

Departure

Time N/A
Airport Brisbane International Airport (YBBN)

Arrival

Time 2026-04-23 00:21
Airport Los Angeles International Airport (KLAX)
Time Latitude Longitude Altitude Speed Heading
2026-04-22 23:34 30.65965 -123.13877 37164 ft 566 kts 53°
2026-04-22 23:34 30.70152 -123.06169 37164 ft 567 kts 56°
2026-04-22 23:35 30.74214 -122.98288 37164 ft 569 kts 56°
2026-04-22 23:35 30.78299 -122.90408 37164 ft 569 kts 56°
2026-04-22 23:36 30.82386 -122.82533 37165 ft 568 kts 55°
2026-04-22 23:36 30.86486 -122.74679 37169 ft 568 kts 55°
2026-04-22 23:37 30.90604 -122.66812 37170 ft 569 kts 55°
2026-04-22 23:37 30.94703 -122.58925 37170 ft 569 kts 55°
2026-04-22 23:38 30.98792 -122.51032 37173 ft 569 kts 55°
2026-04-22 23:38 31.02850 -122.43179 37178 ft 569 kts 56°
2026-04-22 23:39 31.06935 -122.35257 37179 ft 569 kts 56°
2026-04-22 23:39 31.11016 -122.27325 37179 ft 569 kts 56°
2026-04-22 23:40 31.15057 -122.19456 37178 ft 569 kts 55°
2026-04-22 23:40 31.19121 -122.11527 37178 ft 569 kts 56°
2026-04-22 23:41 31.23183 -122.03584 37176 ft 570 kts 56°
2026-04-22 23:41 31.27246 -121.95622 37175 ft 569 kts 56°
2026-04-22 23:42 31.31298 -121.87666 37175 ft 570 kts 56°
2026-04-22 23:42 31.35348 -121.79698 37182 ft 570 kts 56°
2026-04-22 23:43 31.39393 -121.71723 37184 ft 570 kts 56°
2026-04-22 23:43 31.43450 -121.63763 37183 ft 569 kts 56°
2026-04-22 23:44 31.47474 -121.55778 37183 ft 569 kts 56°
2026-04-22 23:44 31.51491 -121.47783 37183 ft 569 kts 56°
2026-04-22 23:45 31.55469 -121.39759 37179 ft 570 kts 59°
2026-04-22 23:45 31.58726 -121.31262 37184 ft 572 kts 65°
2026-04-22 23:46 31.61618 -121.22541 37175 ft 574 kts 66°
2026-04-22 23:46 31.64545 -121.13895 37175 ft 573 kts 66°
2026-04-22 23:47 31.67512 -121.05212 37175 ft 573 kts 66°
2026-04-22 23:47 31.70514 -120.96536 37175 ft 572 kts 65°
2026-04-22 23:48 31.73507 -120.87862 37175 ft 573 kts 66°
2026-04-22 23:48 31.76467 -120.79214 37175 ft 574 kts 66°
2026-04-22 23:49 31.79435 -120.70514 37175 ft 573 kts 66°
2026-04-22 23:49 31.82398 -120.61807 37175 ft 573 kts 65°
2026-04-22 23:50 31.85372 -120.53122 37177 ft 572 kts 66°
2026-04-22 23:50 31.88313 -120.44400 37177 ft 573 kts 66°
2026-04-22 23:51 31.91245 -120.35670 37176 ft 573 kts 66°
2026-04-22 23:51 31.94601 -120.27282 37178 ft 568 kts 53°
2026-04-22 23:52 31.99440 -120.20013 37178 ft 561 kts 43°
2026-04-22 23:52 32.04776 -120.13360 37178 ft 556 kts 40°
2026-04-22 23:53 32.10104 -120.06731 37178 ft 556 kts 41°
2026-04-22 23:53 32.15390 -120.00048 37168 ft 557 kts 41°
2026-04-22 23:54 32.20679 -119.93373 37169 ft 557 kts 41°
2026-04-22 23:54 32.25971 -119.86677 37170 ft 557 kts 41°
2026-04-22 23:55 32.31269 -119.79972 37162 ft 558 kts 41°
2026-04-22 23:55 32.36540 -119.73238 37163 ft 558 kts 41°
2026-04-22 23:56 32.41807 -119.66492 37156 ft 558 kts 41°
2026-04-22 23:56 32.44441 -119.63117 36867 ft 556 kts 41°
2026-04-22 23:56 32.47059 -119.59764 36164 ft 555 kts 41°
2026-04-22 23:57 32.49702 -119.56374 35397 ft 565 kts 43°
2026-04-22 23:57 32.52367 -119.52946 34879 ft 565 kts 43°
2026-04-22 23:57 32.55044 -119.49500 34425 ft 569 kts 43°
2026-04-22 23:57 32.57705 -119.46068 34016 ft 564 kts 43°
2026-04-22 23:58 32.60370 -119.42631 33390 ft 568 kts 43°
2026-04-22 23:58 32.63041 -119.39175 33090 ft 563 kts 42°
2026-04-22 23:58 32.65668 -119.35784 32492 ft 556 kts 42°
2026-04-22 23:58 32.68285 -119.32404 31479 ft 558 kts 42°
2026-04-22 23:59 32.70917 -119.29000 30354 ft 558 kts 42°
2026-04-22 23:59 32.73552 -119.25632 29128 ft 554 kts 43°
2026-04-22 23:59 32.76132 -119.22312 28181 ft 553 kts 43°
2026-04-22 23:59 32.78727 -119.18960 27454 ft 546 kts 44°
2026-04-23 00:00 32.83794 -119.12394 26145 ft 532 kts 44°
2026-04-23 00:00 32.85474 -119.10214 25721 ft 527 kts 44°
2026-04-23 00:00 32.88726 -119.05988 24918 ft 517 kts 44°
2026-04-23 00:01 32.91141 -119.02847 24287 ft 511 kts 44°
2026-04-23 00:01 32.93524 -118.99744 23614 ft 505 kts 45°
2026-04-23 00:01 32.95884 -118.96668 22949 ft 500 kts 45°
2026-04-23 00:01 32.98226 -118.93635 22297 ft 494 kts 44°
2026-04-23 00:02 33.00536 -118.90636 21646 ft 489 kts 44°
2026-04-23 00:02 33.02819 -118.87655 21000 ft 484 kts 44°
2026-04-23 00:02 33.05071 -118.84707 20343 ft 479 kts 44°
2026-04-23 00:02 33.07302 -118.81779 19713 ft 474 kts 44°
2026-04-23 00:03 33.09510 -118.78881 19075 ft 469 kts 44°
2026-04-23 00:03 33.11687 -118.76019 18532 ft 460 kts 44°
2026-04-23 00:03 33.13778 -118.73271 18411 ft 434 kts 44°
2026-04-23 00:03 33.15757 -118.70669 18220 ft 413 kts 44°
2026-04-23 00:04 33.17666 -118.68159 17876 ft 405 kts 44°
2026-04-23 00:04 33.19538 -118.65676 17511 ft 400 kts 45°
2026-04-23 00:04 33.21340 -118.63164 17056 ft 397 kts 46°
2026-04-23 00:04 33.23132 -118.60618 16462 ft 402 kts 46°
2026-04-23 00:05 33.24939 -118.58062 15864 ft 403 kts 46°
2026-04-23 00:05 33.26750 -118.55505 15263 ft 402 kts 46°
2026-04-23 00:05 33.28559 -118.52953 14664 ft 402 kts 46°
2026-04-23 00:05 33.30341 -118.50440 14328 ft 394 kts 46°
2026-04-23 00:06 33.32064 -118.47968 14216 ft 382 kts 50°
2026-04-23 00:06 33.33263 -118.45165 14144 ft 379 kts 70°
2026-04-23 00:06 33.33720 -118.42109 14090 ft 380 kts 83°
2026-04-23 00:06 33.33867 -118.38941 14033 ft 383 kts 88°
2026-04-23 00:07 33.33842 -118.35753 14032 ft 383 kts 92°
2026-04-23 00:07 33.33681 -118.32576 14031 ft 383 kts 95°
2026-04-23 00:07 33.33533 -118.30429 14031 ft 383 kts 95°
2026-04-23 00:07 33.33385 -118.27251 14012 ft 383 kts 87°
2026-04-23 00:08 33.33960 -118.24158 14017 ft 382 kts 66°
2026-04-23 00:08 33.35321 -118.21481 13934 ft 374 kts 46°
2026-04-23 00:08 33.37947 -118.19166 13829 ft 337 kts 19°
2026-04-23 00:08 33.39369 -118.18569 13760 ft 319 kts 10°
2026-04-23 00:09 33.41482 -118.18136 13513 ft 301 kts
2026-04-23 00:09 33.43543 -118.17798 13044 ft 296 kts
2026-04-23 00:09 33.45571 -118.17491 12544 ft 292 kts
2026-04-23 00:09 33.47586 -118.17184 12068 ft 292 kts
2026-04-23 00:10 33.49575 -118.16879 11746 ft 284 kts
2026-04-23 00:10 33.51530 -118.16578 11201 ft 282 kts
2026-04-23 00:10 33.53472 -118.16279 10691 ft 281 kts
2026-04-23 00:10 33.55403 -118.15979 10291 ft 278 kts
2026-04-23 00:11 33.57311 -118.15684 9906 ft 275 kts
2026-04-23 00:11 33.59206 -118.15391 9489 ft 273 kts
2026-04-23 00:11 33.61086 -118.15100 9085 ft 271 kts
2026-04-23 00:11 33.62951 -118.14809 8682 ft 269 kts
2026-04-23 00:12 33.64803 -118.14520 8264 ft 268 kts
2026-04-23 00:12 33.66644 -118.14232 7862 ft 266 kts
2026-04-23 00:12 33.68473 -118.13945 7467 ft 264 kts
2026-04-23 00:12 33.70294 -118.13660 7078 ft 263 kts
2026-04-23 00:13 33.72100 -118.13377 6881 ft 263 kts
2026-04-23 00:13 33.73911 -118.13093 6685 ft 262 kts
2026-04-23 00:13 33.75694 -118.12814 6490 ft 261 kts
2026-04-23 00:13 33.77494 -118.12531 6294 ft 260 kts
2026-04-23 00:14 33.79287 -118.12250 6095 ft 261 kts
2026-04-23 00:14 33.81087 -118.11968 5892 ft 259 kts
2026-04-23 00:14 33.82852 -118.11691 5696 ft 252 kts
2026-04-23 00:14 33.84569 -118.11421 5503 ft 245 kts
2026-04-23 00:15 33.86240 -118.11159 5314 ft 239 kts
2026-04-23 00:15 33.87871 -118.10903 5135 ft 232 kts
2026-04-23 00:15 33.89459 -118.10708 5025 ft 230 kts
2026-04-23 00:15 33.91049 -118.10690 4889 ft 225 kts 358°
2026-04-23 00:16 33.92569 -118.10942 4662 ft 217 kts 343°
2026-04-23 00:16 33.93918 -118.11667 4378 ft 212 kts 330°
2026-04-23 00:16 33.95128 -118.12737 4098 ft 219 kts 312°
2026-04-23 00:16 33.95803 -118.14352 3916 ft 218 kts 285°
2026-04-23 00:17 33.95956 -118.16165 3678 ft 217 kts 272°
2026-04-23 00:17 33.95883 -118.17944 3400 ft 208 kts 265°
2026-04-23 00:17 33.95701 -118.19615 3132 ft 199 kts 262°
2026-04-23 00:17 33.95503 -118.21228 2872 ft 190 kts 262°
2026-04-23 00:18 33.95330 -118.22771 2636 ft 182 kts 262°
2026-04-23 00:18 33.95172 -118.24266 2413 ft 178 kts 262°
2026-04-23 00:18 33.95022 -118.25715 2164 ft 172 kts 262°
2026-04-23 00:18 33.94877 -118.27134 1940 ft 169 kts 263°
2026-04-23 00:19 33.94733 -118.28533 1739 ft 167 kts 263°
2026-04-23 00:19 33.94591 -118.29921 1543 ft 166 kts 264°
2026-04-23 00:19 33.94451 -118.31292 1302 ft 164 kts 264°
2026-04-23 00:19 33.94315 -118.32624 1052 ft 154 kts 265°
2026-04-23 00:20 33.94179 -118.33852 846 ft 141 kts 264°
2026-04-23 00:20 33.94062 -118.35007 664 ft 138 kts 265°
2026-04-23 00:20 33.93965 -118.36151 549 ft 136 kts 263°
2026-04-23 00:20 33.93850 -118.37282 382 ft 137 kts 260°
2026-04-23 00:21 33.93725 -118.38420 191 ft 135 kts 260°
2026-04-23 00:21 33.93615 -118.39461 140 ft 103 kts 260°
2026-04-23 00:21 33.93549 -118.40072 140 ft 61 kts 263°
2026-04-23 00:21 33.93536 -118.40421 140 ft 29 kts 276°
2026-04-23 00:22 33.93579 -118.40599 140 ft 12 kts 287°
2026-04-23 00:22 33.93593 -118.40693 140 ft 10 kts 272°
2026-04-23 00:22 33.93590 -118.40775 140 ft 10 kts 271°
2026-04-23 00:22 33.93594 -118.40852 140 ft 9 kts 288°
2026-04-23 00:23 33.93640 -118.40899 140 ft 9 kts 342°
2026-04-23 00:23 33.93699 -118.40911 140 ft 8 kts 353°
2026-04-23 00:23 33.93755 -118.40921 140 ft 8 kts 336°
2026-04-23 00:23 33.93778 -118.40976 140 ft 8 kts 268°
2026-04-23 00:24 33.93772 -118.41038 140 ft 7 kts 262°
2026-04-23 00:24 33.93766 -118.41097 140 ft 7 kts 262°
2026-04-23 00:24 33.93769 -118.41152 140 ft 7 kts 306°
2026-04-23 00:24 33.93812 -118.41171 140 ft 7 kts 354°
2026-04-23 00:25 33.93856 -118.41179 140 ft 6 kts 351°
2026-04-23 00:25 33.93917 -118.41188 140 ft 11 kts 353°
2026-04-23 00:25 33.93963 -118.41194 140 ft 1 kts 353°
2026-04-23 00:25 33.93967 -118.41195 140 ft 5 kts 353°
2026-04-23 00:26 33.94003 -118.41200 140 ft 3 kts 353°
2026-04-23 00:26 33.94025 -118.41204 140 ft 3 kts 353°
2026-04-23 00:26 33.94094 -118.41213 140 ft 16 kts 353°
2026-04-23 00:26 33.94188 -118.41227 140 ft 10 kts 353°
2026-04-23 00:27 33.94234 -118.41232 140 ft 5 kts 12°
2026-04-23 00:27 33.94253 -118.41203 140 ft 5 kts 80°
2026-04-23 00:27 33.94257 -118.41165 140 ft 5 kts 83°
2026-04-23 00:27 33.94260 -118.41134 140 ft 0 kts 83°